ENY4101 KDCA-KCLE

Flight info

Callsign ENY4101
Flight time N/A
Altitude 26000
Route HORTO4 JERES J211 JST UPPRR TRYBE4
Aircraft E75L/M-SDE3GILORVW/S

Departure

Time 2026-05-05 21:39
Airport Ronald Reagan Washington National Airport (KDCA)

Arrival

Time N/A
Airport Cleveland Hopkins International Airport (KCLE)
Time Latitude Longitude Altitude Speed Heading
2026-05-05 21:15 38.85666 -77.04221 22 ft 0 kts 201°
2026-05-05 21:31 38.85683 -77.04215 23 ft 4 kts 190°
2026-05-05 21:31 38.85708 -77.04217 22 ft 4 kts 150°
2026-05-05 21:31 38.85717 -77.04239 24 ft 3 kts 75°
2026-05-05 21:32 38.85716 -77.04242 24 ft 0 kts 72°
2026-05-05 21:35 38.85717 -77.04240 24 ft 1 kts 72°
2026-05-05 21:35 38.85722 -77.04218 22 ft 4 kts 72°
2026-05-05 21:36 38.85730 -77.04187 22 ft 4 kts 72°
2026-05-05 21:36 38.85736 -77.04164 22 ft 1 kts 72°
2026-05-05 21:36 38.85740 -77.04146 22 ft 4 kts 72°
2026-05-05 21:36 38.85752 -77.04105 22 ft 6 kts 62°
2026-05-05 21:37 38.85784 -77.04064 24 ft 7 kts 26°
2026-05-05 21:37 38.85839 -77.04061 23 ft 10 kts 356°
2026-05-05 21:37 38.85917 -77.04054 22 ft 12 kts 39°
2026-05-05 21:37 38.85963 -77.03972 22 ft 11 kts 22°
2026-05-05 21:38 38.86042 -77.03941 22 ft 0 kts 15°
2026-05-05 21:38 38.86073 -77.03930 21 ft 1 kts 17°
2026-05-05 21:38 38.86103 -77.03887 20 ft 9 kts 90°
2026-05-05 21:38 38.86082 -77.03868 22 ft 1 kts 179°
2026-05-05 21:39 38.86068 -77.03867 20 ft 6 kts 177°
2026-05-05 21:39 38.85794 -77.03842 23 ft 81 kts 175°
2026-05-05 21:39 38.84980 -77.03757 149 ft 142 kts 178°
2026-05-05 21:39 38.83962 -77.03641 1074 ft 150 kts 179°
2026-05-05 21:40 38.82880 -77.03498 1946 ft 157 kts 179°
2026-05-05 21:40 38.81752 -77.03377 2702 ft 166 kts 183°
2026-05-05 21:40 38.80543 -77.03302 3395 ft 181 kts 182°
2026-05-05 21:40 38.79258 -77.03217 4134 ft 195 kts 182°
2026-05-05 21:41 38.77877 -77.03282 4905 ft 201 kts 198°
2026-05-05 21:41 38.76750 -77.04251 5765 ft 201 kts 229°
2026-05-05 21:41 38.76331 -77.05973 6519 ft 212 kts 265°
2026-05-05 21:41 38.85668 -77.04220 6822 ft 18 kts 201°